FW5178 Weather Reports


time (UTC)temp
C
wind
direction
speed
KPH
gust
KPH
rain 1hr
cm
rain 24hr
cm
rain mn
cm
humidity
%
barometer
mb
20260508114532 10 12 6.4 16.1 0.00 0.00 0.00 64 1018.6
20260508113032 10 16 6.4 12.9 0.00 0.00 0.00 63 1018.5
20260508111531 10 17 3.2 11.3 0.00 0.00 0.00 63 1018.3
20260508110031 10 33 4.8 9.7 0.00 0.00 0.00 63 1018.2
20260508104530 10 31 3.2 9.7 0.00 0.00 0.00 65 1018.2
20260508103145 9 50 3.2 9.7 0.00 0.00 0.00 65 1018.2
20260508101542 9 67 1.6 6.4 0.00 0.00 0.00 64 1018.3
20260508100031 9 61 4.8 8.0 0.00 0.00 0.00 63 1018.2
20260508094607 10 26 4.8 9.7 0.00 0.00 0.00 61 1018.2
20260508091529 10 42 4.8 11.3 0.00 0.00 0.00 58 1018.0
20260508090032 11 60 3.2 8.0 0.00 0.00 0.00 58 1018.1
20260508084533 11 56 3.2 8.0 0.00 0.00 0.00 56 1018.1
20260508083030 11 79 4.8 9.7 0.00 0.00 0.00 54 1018.1
20260508081530 11 171 0.0 6.4 0.00 0.00 0.00 53 1018.1
20260508074531 11 165 3.2 11.3 0.00 0.00 0.00 54 1018.1
20260508073029 11 21 1.6 8.0 0.00 0.00 0.00 54 1018.0
20260508071532 11 308 0.0 6.4 0.00 0.00 0.00 55 1018.0
20260508070028 11 119 1.6 6.4 0.00 0.00 0.00 56 1018.0
20260508064530 11 76 3.2 8.0 0.00 0.00 0.00 56 1018.0
20260508063030 11 347 1.6 8.0 0.00 0.00 0.00 56 1018.0
20260508061531 11 14 0.0 8.0 0.00 0.00 0.00 56 1018.0
20260508060029 11 40 0.0 8.0 0.00 0.00 0.00 56 1018.1
20260508051530 11 13 3.2 8.0 0.00 0.00 0.00 49 1018.1
20260508044606 12 73 0.0 6.4 0.00 0.00 0.00 49 1017.9
20260508043029 13 340 1.6 9.7 0.00 0.00 0.00 47 1017.9
20260508041531 13 278 3.2 14.5 0.00 0.00 0.00 45 1017.8
20260508034533 13 301 4.8 14.5 0.00 0.00 0.00 41 1017.5
20260508031533 15 296 1.6 9.7 0.00 0.00 0.00 35 1017.3
20260508030030 16 300 4.8 17.7 0.00 0.00 0.00 32 1017.3
20260508024645 17 302 9.7 17.7 0.00 0.00 0.00 30 1017.2
20260508023027 18 311 9.7 24.1 0.00 0.00 0.00 30 1017.1
20260508021529 18 314 9.7 25.7 0.00 0.00 0.00 29 1017.0
20260508020028 18 320 11.3 29.0 0.00 0.00 0.00 28 1017.1
20260508014530 19 321 11.3 27.4 0.00 0.00 0.00 26 1017.0
20260508003055 -17 0 0.0 0.0 0.00 0.00 0.00 100
20260508001530 21 328 9.7 38.6 0.00 0.00 0.00 24 1017.2
20260508000033 21 313 11.3 33.8 0.00 0.00 0.00 24 1017.1
20260507231531 20 310 12.9 33.8 0.00 0.00 0.00 32 1017.4
20260507230112 20 310 16.1 30.6 0.00 0.00 0.00 32 1017.4
20260507224529 21 310 14.5 32.2 0.00 0.00 0.00 32 1017.4
20260507223039 21 314 16.1 33.8 0.00 0.00 0.00 33 1017.5
20260507221532 20 308 12.9 24.1 0.00 0.00 0.00 34 1017.8
20260507220032 20 322 12.9 30.6 0.00 0.00 0.00 35 1017.9
20260507214530 20 320 12.9 33.8 0.00 0.00 0.00 38 1018.1
20260507213030 20 317 12.9 37.0 0.00 0.00 0.00 40 1018.3
20260507210026 20 320 11.3 27.4 0.00 0.00 0.00 44 1018.7
20260507204529 19 330 11.3 29.0 0.00 0.00 0.00 44 1018.8
20260507203031 18 334 11.3 29.0 0.00 0.00 0.00 44 1018.8
20260507201532 18 343 12.9 25.7 0.00 0.00 0.00 46 1018.9
20260507200031 18 334 11.3 30.6 0.00 0.00 0.00 46 1019.0
20260507194528 18 322 12.9 32.2 0.00 0.00 0.00 47 1019.1
20260507193107 17 325 11.3 24.1 0.00 0.00 0.00 50 1019.2
20260507191529 17 347 14.5 29.0 0.00 0.00 0.00 52 1019.4
20260507184533 16 328 11.3 24.1 0.00 0.00 0.00 54 1019.7
20260507183105 16 349 12.9 27.4 0.00 0.00 0.00 56 1019.8
20260507181532 16 346 12.9 27.4 0.00 0.00 0.00 59 1020.0
20260507180029 15 336 9.7 20.9 0.00 0.00 0.00 62 1020.1
20260507174532 15 349 12.9 24.1 0.00 0.00 0.00 63 1020.2
20260507173029 15 339 11.3 17.7 0.00 0.00 0.00 64 1020.4
20260507171533 14 334 9.7 22.5 0.00 0.00 0.00 66 1020.6
20260507170032 13 338 9.7 24.1 0.00 0.00 0.00 67 1020.6
20260507164531 13 320 11.3 24.1 0.00 0.00 0.00 68 1020.7
20260507163032 12 326 8.0 25.7 0.00 0.00 0.00 70 1020.8
20260507161601 12 327 8.0 22.5 0.00 0.00 0.00 72 1020.8
20260507160032 12 334 8.0 20.9 0.00 0.00 0.00 74 1020.8
20260507154530 12 326 8.0 22.5 0.00 0.00 0.00 76 1020.8
20260507151603 11 317 9.7 25.7 0.00 0.00 0.00 81 1020.9
20260507150034 10 317 11.3 25.7 0.00 0.00 0.00 84 1020.9
20260507144532 9 313 12.9 27.4 0.00 0.00 0.00 85 1020.8
20260507141529 8 355 12.9 24.1 0.00 0.00 0.00 87 1020.8
20260507140145 8 359 11.3 19.3 0.00 0.00 0.00 87 1020.6
20260507134532 8 5 11.3 17.7 0.00 0.00 0.00 87 1020.5
20260507133106 9 15 12.9 25.7 0.00 0.00 0.00 87 1020.3
20260507131530 8 12 11.3 20.9 0.00 0.00 0.00 86 1020.3
20260507130032 9 9 11.3 20.9 0.00 0.00 0.00 86 1020.2
20260507123108 9 344 6.4 16.1 0.00 0.00 0.00 84 1020.3
20260507121530 10 347 6.4 14.5 0.00 0.00 0.00 84 1020.3